Location: La Brionne
(46.1728°N, 1.7849°E)
Time: 22:36:44
(UTC+00:00)

Tsikada Rocket - Pass Details

Date: 16 June 2021
Orbit: 959 x 1008 km, 82.9° (Epoch: 02 August)

Event Time Altitude Azimuth Distance (km) Brightness Sun altitude
Exits shadow 23:28:39 31° 144° (SE) 1,620 4.7 -20.2°
Maximum altitude 23:31:12 49° 91° (E) 1,236 4.5 -20.3°
Drops below altitude 10° 23:37:06 10° 19° (NNE) 2,707 7.3 -20.3°
Sets 23:39:40 0° 14° (NNE) 3,655 8.3 -20.4°
